| time (UTC) | temp F | wind direction | speed MPH | gust MPH | rain 1hr in | rain 24hr in | rain mn in | humidity % | barometer mb |
| 20260507154447 | 62 | 71 | 3.0 | 7.0 | 0.00 | 0.11 | 0.00 | 72 | 1020.1 |
| 20260507152950 | 62 | 73 | 3.0 | 6.0 | 0.00 | 0.11 | 0.00 | 72 | 1020.0 |
| 20260507145952 | 61 | 95 | 3.0 | 6.0 | 0.00 | 0.11 | 0.00 | 76 | 1020.4 |
| 20260507144447 | 61 | 78 | 3.0 | 6.0 | 0.00 | 0.14 | 0.00 | 76 | 1020.3 |
| 20260507142949 | 60 | 87 | 3.0 | 7.0 | 0.00 | 0.14 | 0.00 | 78 | 1020.5 |
| 20260507141447 | 60 | 78 | 2.0 | 5.0 | 0.00 | 0.14 | 0.00 | 80 | 1020.6 |
| 20260507135950 | 59 | 65 | 0.0 | 3.0 | 0.00 | 0.14 | 0.00 | 87 | 1020.7 |
| 20260507131447 | 53 | 4 | 0.0 | 1.0 | 0.00 | 0.14 | 0.00 | 95 | 1020.9 |
| 20260507125952 | 51 | 60 | 0.0 | 0.0 | 0.00 | 0.14 | 0.00 | 96 | 1020.9 |
| 20260507122950 | 49 | 176 | 0.0 | 1.0 | 0.00 | 0.14 | 0.00 | 97 | 1020.9 |
| 20260507121447 | 48 | 63 | 0.0 | 2.0 | 0.00 | 0.14 | 0.00 | 97 | 1020.8 |
| 20260507115953 | 48 | 52 | 0.0 | 0.0 | 0.00 | 0.14 | 0.00 | 96 | 1020.9 |
| 20260507114447 | 48 | 53 | 0.0 | 0.0 | 0.00 | 0.14 | 0.00 | 95 | 1021.0 |
| 20260507112950 | 49 | 53 | 0.0 | 0.0 | 0.00 | 0.14 | 0.00 | 95 | 1020.8 |
| 20260507111447 | 49 | 53 | 0.0 | 0.0 | 0.00 | 0.14 | 0.00 | 95 | 1020.5 |
| 20260507105952 | 50 | 51 | 0.0 | 1.0 | 0.00 | 0.14 | 0.00 | 95 | 1020.4 |
| 20260507104447 | 50 | 7 | 0.0 | 1.0 | 0.00 | 0.14 | 0.00 | 95 | 1020.3 |
| 20260507102950 | 50 | 32 | 0.0 | 3.0 | 0.00 | 0.14 | 0.00 | 95 | 1020.0 |
| 20260507101448 | 50 | 10 | 0.0 | 2.0 | 0.00 | 0.14 | 0.00 | 95 | 1019.5 |
| 20260507095952 | 50 | 340 | 0.0 | 3.0 | 0.00 | 0.14 | 0.00 | 95 | 1019.4 |
| 20260507094447 | 50 | 349 | 1.0 | 4.0 | 0.00 | 0.14 | 0.00 | 96 | 1019.0 |
| 20260507092949 | 50 | 11 | 0.0 | 2.0 | 0.00 | 0.14 | 0.00 | 96 | 1018.8 |
| 20260507091446 | 50 | 23 | 0.0 | 2.0 | 0.00 | 0.14 | 0.00 | 96 | 1018.8 |
| 20260507085953 | 50 | 255 | 0.0 | 0.0 | 0.00 | 0.14 | 0.00 | 95 | 1018.6 |
| 20260507082949 | 51 | 16 | 0.0 | 0.0 | 0.00 | 0.14 | 0.00 | 94 | 1018.2 |
| 20260507081447 | 52 | 15 | 0.0 | 1.0 | 0.00 | 0.14 | 0.00 | 94 | 1018.0 |
| 20260507075951 | 52 | 54 | 0.0 | 1.0 | 0.00 | 0.14 | 0.00 | 94 | 1017.8 |
| 20260507074447 | 53 | 39 | 0.0 | 1.0 | 0.00 | 0.14 | 0.00 | 93 | 1018.1 |
| 20260507065951 | 52 | 18 | 0.0 | 0.0 | 0.00 | 0.14 | 0.00 | 94 | 1017.6 |
| 20260507064447 | 53 | 18 | 0.0 | 0.0 | 0.00 | 0.14 | 0.00 | 92 | 1017.5 |
| 20260507061446 | 54 | 84 | 0.0 | 0.0 | 0.00 | 0.14 | 0.00 | 91 | 1017.1 |
| 20260507055952 | 54 | 84 | 0.0 | 2.0 | 0.00 | 0.14 | 0.00 | 90 | 1017.1 |
| 20260507054448 | 55 | 103 | 1.0 | 3.0 | 0.00 | 0.14 | 0.00 | 89 | 1017.2 |
| 20260507052950 | 55 | 70 | 1.0 | 3.0 | 0.00 | 0.14 | 0.00 | 89 | 1017.1 |
| 20260507051448 | 55 | 79 | 1.0 | 4.0 | 0.00 | 0.14 | 0.00 | 89 | 1017.1 |
| 20260507045955 | 55 | 96 | 0.0 | 3.0 | 0.00 | 0.14 | 0.00 | 90 | 1017.1 |
| 20260507044447 | 56 | 68 | 1.0 | 5.0 | 0.00 | 0.14 | 0.14 | 89 | 1017.0 |
| 20260507042950 | 55 | 81 | 2.0 | 4.0 | 0.00 | 0.14 | 0.14 | 90 | 1017.0 |
| 20260507041447 | 55 | 68 | 0.0 | 2.0 | 0.00 | 0.14 | 0.14 | 91 | 1017.2 |
| 20260507035952 | 55 | 88 | 0.0 | 2.0 | 0.00 | 0.14 | 0.14 | 92 | 1017.2 |
| 20260507034447 | 55 | 69 | 1.0 | 3.0 | 0.00 | 0.14 | 0.14 | 92 | 1017.2 |
| 20260507032950 | 56 | 64 | 0.0 | 2.0 | 0.00 | 0.14 | 0.14 | 92 | 1017.2 |
| 20260507031448 | 56 | 62 | 0.0 | 1.0 | 0.00 | 0.14 | 0.14 | 93 | 1017.1 |
| 20260507025954 | 56 | 71 | 0.0 | 1.0 | 0.00 | 0.14 | 0.14 | 94 | 1017.0 |
| 20260507024447 | 56 | 64 | 0.0 | 1.0 | 0.00 | 0.14 | 0.14 | 95 | 1016.8 |
| 20260507015952 | 58 | 103 | 0.0 | 1.0 | 0.00 | 0.14 | 0.14 | 93 | 1015.9 |
| 20260507011447 | 60 | 99 | 0.0 | 2.0 | 0.00 | 0.14 | 0.14 | 90 | 1014.8 |
| 20260507005953 | 60 | 105 | 1.0 | 3.0 | 0.00 | 0.14 | 0.14 | 89 | 1014.7 |
| 20260507002950 | 62 | 148 | 1.0 | 4.0 | 0.00 | 0.14 | 0.14 | 86 | 1014.5 |
| 20260507001447 | 63 | 108 | 1.0 | 3.0 | 0.00 | 0.14 | 0.14 | 84 | 1014.5 |
| 20260506235952 | 63 | 113 | 0.0 | 2.0 | 0.00 | 0.14 | 0.14 | 81 | 1014.2 |
| 20260506234447 | 62 | 119 | 1.0 | 3.0 | 0.00 | 0.14 | 0.14 | 83 | 1014.3 |
| 20260506232950 | 62 | 151 | 0.0 | 1.0 | 0.00 | 0.14 | 0.14 | 83 | 1014.2 |
| 20260506225954 | 62 | 67 | 1.0 | 4.0 | 0.00 | 0.14 | 0.14 | 84 | 1013.9 |
| 20260506224448 | 61 | 81 | 1.0 | 5.0 | 0.11 | 0.14 | 0.14 | 83 | 1013.9 |
| 20260506222950 | 61 | 90 | 1.0 | 3.0 | 0.11 | 0.14 | 0.14 | 86 | 1013.7 |
| 20260506221447 | 60 | 160 | 0.0 | 3.0 | 0.11 | 0.14 | 0.14 | 89 | 1013.9 |
| 20260506215951 | 59 | 188 | 1.0 | 3.0 | 0.11 | 0.14 | 0.14 | 88 | 1014.2 |
| 20260506214448 | 61 | 340 | 2.0 | 5.0 | 0.00 | 0.03 | 0.03 | 77 | 1014.5 |
| 20260506212949 | 62 | 61 | 4.0 | 9.0 | 0.00 | 0.03 | 0.03 | 78 | 1014.0 |
| 20260506211447 | 61 | 55 | 2.0 | 6.0 | 0.00 | 0.03 | 0.03 | 79 | 1014.0 |
| 20260506205954 | 61 | 335 | 4.0 | 8.0 | 0.00 | 0.03 | 0.03 | 77 | 1014.2 |
| 20260506204447 | 61 | 344 | 4.0 | 6.0 | 0.00 | 0.03 | 0.03 | 78 | 1014.2 |
| 20260506202950 | 60 | 41 | 3.0 | 7.0 | 0.00 | 0.03 | 0.03 | 79 | 1014.5 |
| 20260506201447 | 60 | 57 | 4.0 | 10.0 | 0.00 | 0.03 | 0.03 | 79 | 1014.5 |
| 20260506194448 | 59 | 42 | 5.0 | 8.0 | 0.00 | 0.03 | 0.03 | 81 | 1014.9 |
| 20260506192950 | 58 | 29 | 4.0 | 9.0 | 0.00 | 0.03 | 0.03 | 83 | 1015.1 |
| 20260506191447 | 57 | 40 | 4.0 | 8.0 | 0.00 | 0.03 | 0.03 | 85 | 1015.4 |
| 20260506185954 | 56 | 51 | 2.0 | 7.0 | 0.00 | 0.03 | 0.03 | 85 | 1015.5 |
| 20260506184447 | 55 | 356 | 2.0 | 5.0 | 0.00 | 0.03 | 0.03 | 88 | 1015.8 |
| 20260506181447 | 54 | 12 | 3.0 | 6.0 | 0.00 | 0.03 | 0.03 | 87 | 1015.8 |
| 20260506175952 | 54 | 360 | 5.0 | 13.0 | 0.00 | 0.03 | 0.03 | 89 | 1015.4 |
| 20260506174447 | 55 | 26 | 7.0 | 14.0 | 0.00 | 0.03 | 0.03 | 88 | 1014.7 |
| 20260506171447 | 53 | 37 | 6.0 | 11.0 | 0.00 | 0.03 | 0.03 | 94 | 1014.7 |
| 20260506165952 | 52 | 44 | 5.0 | 12.0 | 0.00 | 0.03 | 0.03 | 98 | 1015.2 |
| 20260506164447 | 52 | 28 | 5.0 | 9.0 | 0.00 | 0.03 | 0.03 | 98 | 1014.6 |
| 20260506162950 | 52 | 43 | 3.0 | 7.0 | 0.00 | 0.03 | 0.03 | 98 | 1015.2 |
| 20260506161447 | 52 | 55 | 5.0 | 11.0 | 0.00 | 0.03 | 0.03 | 98 | 1015.1 |
| 20260506155950 | 51 | 28 | 6.0 | 10.0 | 0.00 | 0.03 | 0.03 | 97 | 1015.2 |